Weather History for Hutchinson, MN

Change the Weather History Date:

Friday, May 24, 2013

  Actual Average Record
Temperature  
Mean Temperature 53 °F -  
Max Temperature 68 °F 72 °F 84 °F (1977)
Min Temperature 38 °F 50 °F 33 °F (1963)
Degree Days  
Heating Degree Days 12    
Growing Degree Days 3 (Base 50)    
Moisture  
Dew Point 42 °F    
Average Humidity 63    
Maximum Humidity 88    
Minimum Humidity 37    
Precipitation  
Precipitation 0.00 in - - ()
Sea Level Pressure  
Sea Level Pressure 30.29 in    
Wind  
Wind Speed 8 mph (ESE)    
Max Wind Speed 17 mph    
Max Gust Speed 23 mph    
Visibility 10 miles    
Events Rain    
Averages and records for this station are not official NWS values.
T = Trace of Precipitation, MM = Missing Value Source: NWS Daily Summary

Daily Weather History Graph

Daily Weather History Graph

Search for Another Location

Airport:

Trip Planner

Search our weather history database for the weather conditions in past years. The results will help you decide how hot, cold, wet, or windy it might be!

Date:

Astronomy

May. 24, 2013 Rise Set
Actual Time 5:39 AM CDT 8:49 PM CDT
Civil Twilight 5:04 AM CDT 9:24 PM CDT
Nautical Twilight 4:19 AM CDT 10:10 PM CDT
Astronomical Twilight 3:23 AM CDT 11:06 PM CDT
Moon 8:31 PM CDT (5/24) 5:15 AM CDT (5/24)
Length of Visible Light 16h 20m
Length of Day
15h 09m
Full, 100% of the Moon is Illuminated
May 24
Full
May 24
Full
May 31
Last Quarter
Jun 8
New
Jun 16
First Quarter

Hourly Weather History & Observations

Time (CDT) Temp. Windchill Dew Point Humidity Pressure Visibility Wind Dir Wind Speed Gust Speed Precip Events Conditions
12:14 AM 50.2 °F - 35.2 °F 57% 30.34 in 10.0 mi East 5.8 mph - N/A   Clear
12:34 AM 49.3 °F - 35.2 °F 58% 30.34 in 10.0 mi East 5.8 mph - N/A   Clear
12:54 AM 47.7 °F - 36.5 °F 65% 30.35 in 10.0 mi ESE 6.9 mph - N/A   Clear
1:14 AM 46.9 °F - 36.0 °F 66% 30.35 in 10.0 mi ESE 5.8 mph - N/A   Clear
1:34 AM 46.6 °F - 35.8 °F 66% 30.35 in 10.0 mi ESE 4.6 mph - N/A   Clear
1:54 AM 45.5 °F 44.2 °F 35.6 °F 68% 30.35 in 10.0 mi SE 3.5 mph - N/A   Clear
2:14 AM 44.8 °F 43.3 °F 35.1 °F 69% 30.35 in 10.0 mi ESE 3.5 mph - N/A   Clear
2:33 AM 45.0 °F 43.5 °F 34.2 °F 66% 30.35 in 10.0 mi East 3.5 mph - N/A   Clear
2:54 AM 44.4 °F 42.0 °F 33.6 °F 66% 30.35 in 10.0 mi East 4.6 mph - N/A   Clear
3:14 AM 43.9 °F 42.3 °F 33.8 °F 68% 30.35 in 10.0 mi ESE 3.5 mph - N/A   Clear
3:33 AM 43.2 °F 41.5 °F 33.8 °F 70% 30.35 in 10.0 mi East 3.5 mph - N/A   Clear
3:54 AM 41.9 °F - 33.4 °F 72% 30.34 in 10.0 mi Calm Calm - N/A   Clear
4:14 AM 41.9 °F - 34.2 °F 74% 30.35 in 10.0 mi Calm Calm - N/A   Clear
4:34 AM 41.2 °F 38.2 °F 34.0 °F 76% 30.35 in 10.0 mi East 4.6 mph - N/A   Clear
4:53 AM 40.8 °F 38.8 °F 33.4 °F 75% 30.36 in 10.0 mi ESE 3.5 mph - N/A   Clear
5:14 AM 39.9 °F - 33.8 °F 79% 30.36 in 10.0 mi Calm Calm - N/A   Clear
5:34 AM 38.7 °F - 33.3 °F 81% 30.36 in 10.0 mi Calm Calm - N/A   Clear
5:53 AM 38.3 °F 35.9 °F 33.1 °F 81% 30.37 in 10.0 mi East 3.5 mph - N/A   Clear
6:14 AM 39.9 °F 35.8 °F 33.8 °F 79% 30.36 in 10.0 mi East 5.8 mph - N/A   Clear
6:34 AM 42.6 °F 37.8 °F 33.8 °F 71% 30.36 in 10.0 mi East 8.1 mph - N/A   Clear
6:54 AM 43.7 °F 40.3 °F 34.9 °F 71% 30.36 in 10.0 mi East 5.8 mph - N/A   Clear
7:14 AM 45.9 °F 41.2 °F 35.6 °F 67% 30.36 in 10.0 mi ESE 9.2 mph - N/A   Clear
7:33 AM 47.1 °F - 36.5 °F 67% 30.36 in 10.0 mi ESE 9.2 mph - N/A   Clear
7:53 AM 48.4 °F - 37.8 °F 67% 30.36 in 10.0 mi ESE 10.4 mph - N/A   Clear
8:13 AM 49.6 °F - 38.1 °F 65% 30.37 in 10.0 mi ESE 10.4 mph - N/A   Clear
8:33 AM 50.7 °F - 38.8 °F 64% 30.36 in 10.0 mi ESE 12.7 mph - N/A   Clear
8:54 AM 52.7 °F - 39.4 °F 61% 30.36 in 10.0 mi ESE 12.7 mph - N/A   Clear
9:06 AM 52.9 °F - 39.7 °F 61% 30.36 in 10.0 mi SE 10.4 mph - N/A   Clear
9:33 AM 54.5 °F - 40.8 °F 60% 30.36 in 10.0 mi SE 11.5 mph 16.1 mph N/A   Clear
9:54 AM 55.4 °F - 41.5 °F 60% 30.36 in 10.0 mi ESE 10.4 mph - N/A   Clear
10:14 AM 56.7 °F - 42.8 °F 60% 30.35 in 10.0 mi ESE 11.5 mph - N/A   Clear
10:34 AM 58.3 °F - 43.9 °F 59% 30.35 in 10.0 mi SE 12.7 mph - N/A   Clear
10:54 AM 59.2 °F - 43.3 °F 56% 30.34 in 10.0 mi SE 13.8 mph - N/A   Clear
11:14 AM 60.6 °F - 43.7 °F 54% 30.34 in 10.0 mi SE 10.4 mph - N/A   Clear
11:34 AM 61.3 °F - 42.3 °F 50% 30.33 in 10.0 mi SE 12.7 mph 18.4 mph N/A   Clear
11:54 AM 62.6 °F - 41.0 °F 45% 30.33 in 10.0 mi SE 8.1 mph 17.3 mph N/A   Clear
12:13 PM 63.1 °F - 41.4 °F 45% 30.32 in 10.0 mi SE 11.5 mph - N/A   Clear
12:34 PM 64.6 °F - 42.4 °F 44% 30.31 in 10.0 mi SSE 11.5 mph 18.4 mph N/A   Clear
12:53 PM 63.7 °F - 42.1 °F 45% 30.30 in 10.0 mi ESE 13.8 mph 18.4 mph N/A   Clear
1:14 PM 64.9 °F - 42.3 °F 44% 30.29 in 10.0 mi ESE 16.1 mph 21.9 mph N/A   Clear
1:34 PM 65.1 °F - 41.0 °F 41% 30.28 in 10.0 mi SE 11.5 mph 23.0 mph N/A   Clear
1:54 PM 65.1 °F - 41.5 °F 42% 30.27 in 10.0 mi ESE 16.1 mph - N/A   Clear
2:13 PM 67.1 °F - 43.2 °F 42% 30.25 in 10.0 mi SE 17.3 mph 20.7 mph N/A   Clear
2:34 PM 66.6 °F - 41.4 °F 40% 30.25 in 10.0 mi SE 13.8 mph 19.6 mph N/A   Mostly Cloudy
2:54 PM 67.1 °F - 39.7 °F 37% 30.24 in 10.0 mi SE 12.7 mph 20.7 mph N/A   Scattered Clouds
3:11 PM 67.5 °F - 41.5 °F 39% 30.24 in 10.0 mi SE 13.8 mph 19.6 mph N/A   Scattered Clouds
3:34 PM 68.5 °F - 41.9 °F 38% 30.23 in 10.0 mi SE 15.0 mph 20.7 mph N/A   Scattered Clouds
3:41 PM 67.8 °F - 41.5 °F 38% 30.23 in 10.0 mi ESE 13.8 mph 23.0 mph N/A   Mostly Cloudy
4:05 PM 66.2 °F - 42.8 °F 43% 30.22 in 10.0 mi ESE 15.0 mph 20.7 mph N/A   Mostly Cloudy
4:14 PM 67.1 °F - 42.6 °F 41% 30.22 in 10.0 mi ESE 11.5 mph - N/A   Overcast
4:34 PM 66.2 °F - 42.1 °F 41% 30.24 in 10.0 mi SE 8.1 mph - N/A   Overcast
4:54 PM 66.0 °F - 43.7 °F 44% 30.27 in 10.0 mi SE 5.8 mph - N/A   Overcast
5:14 PM 64.8 °F - 45.7 °F 50% 30.28 in 10.0 mi Calm Calm - N/A   Overcast
5:33 PM 64.6 °F - 45.7 °F 50% 30.27 in 10.0 mi SSE 3.5 mph - N/A Rain Light Rain
5:54 PM 64.0 °F - 45.0 °F 50% 30.24 in 10.0 mi ESE 8.1 mph - N/A Rain Light Rain
6:13 PM 61.9 °F - 47.7 °F 60% 30.19 in 10.0 mi East 13.8 mph - N/A Rain Light Rain
6:22 PM 60.6 °F - 48.9 °F 65% 30.16 in 10.0 mi East 15.0 mph - N/A Rain Light Rain
6:45 PM 60.8 °F - 48.2 °F 63% 30.19 in 10.0 mi East 8.1 mph - N/A   Scattered Clouds
7:05 PM 60.8 °F - 48.2 °F 63% 30.20 in 10.0 mi East 8.1 mph - N/A   Mostly Cloudy
7:25 PM 60.8 °F - 50.0 °F 68% 30.22 in 10.0 mi ESE 6.9 mph - N/A   Overcast
7:45 PM 60.8 °F - 50.0 °F 68% 30.22 in 10.0 mi ESE 8.1 mph - N/A   Overcast
8:05 PM 59.0 °F - 51.8 °F 77% 30.20 in 10.0 mi East 10.4 mph - N/A   Overcast
8:25 PM 59.0 °F - 51.8 °F 77% 30.20 in 10.0 mi East 9.2 mph - N/A   Overcast
8:45 PM 57.2 °F - 51.8 °F 82% 30.19 in 10.0 mi ESE 11.5 mph - N/A   Overcast
9:05 PM 57.2 °F - 51.8 °F 82% 30.19 in 10.0 mi ESE 12.7 mph - N/A   Overcast
9:25 PM 57.2 °F - 51.8 °F 82% 30.19 in 10.0 mi ESE 15.0 mph 18.4 mph N/A   Overcast
9:45 PM 55.4 °F - 51.8 °F 88% 30.19 in 10.0 mi East 17.3 mph - N/A   Overcast
10:05 PM 55.4 °F - 51.8 °F 88% 30.22 in 10.0 mi ESE 12.7 mph - N/A   Overcast
10:25 PM 55.4 °F - 51.8 °F 88% 30.23 in 10.0 mi East 10.4 mph - N/A   Overcast
10:45 PM 55.4 °F - 51.8 °F 88% 30.23 in 10.0 mi ESE 13.8 mph - N/A   Overcast
11:05 PM 55.4 °F - 50.0 °F 82% 30.23 in 10.0 mi East 13.8 mph - N/A   Overcast
11:13 PM 55.9 °F - 50.5 °F 82% 30.23 in 10.0 mi East 11.5 mph - N/A   Overcast
11:34 PM 55.4 °F - 51.1 °F 85% 30.23 in 10.0 mi East 9.2 mph - N/A   Overcast
11:54 PM 55.6 °F - 50.9 °F 84% 30.24 in 10.0 mi ESE 10.4 mph - N/A   Overcast